Location: Pouilly
(47.2624°N, 4.5558°E)
Time: 07:47:01
(UTC+00:00)

Cosmos 2154 Rocket - Pass Details

Date: 07 June 2020
Orbit: 965 x 997 km, 82.9° (Epoch: 04 July)

Event Time Altitude Azimuth Distance (km) Brightness Sun altitude
Exits shadow 01:49:52 18° 190° (S) 2,224 5.3 -14.2°
Maximum altitude 01:54:46 85° 278° (W) 985 4.0 -13.7°
Drops below altitude 10° 02:01:01 10° 8° (N) 2,723 7.4 -13.2°
Sets 02:03:32 0° 9° (N) 3,672 8.3 -12.9°
